Tracking 33446 objects as of 10-Mar-2026
HD Live streaming from Space Station
objects crossing your sky now

STARLINK-35532

Track STARLINK-35532 now!
10-day predictions
STARLINK-35532 is classified as:


NORAD ID: 66091
Int'l Code: 2025-236F
Perigee: 481.0 km
Apogee: 483.6 km
Inclination: 53.2 °
Period: 94.1 minutes
Semi major axis: 6853 km
RCS: Unknown
Launch date: October 19, 2025
Source: United States (US)
Launch site: AIR FORCE WESTERN TEST RANGE (AFWTR)
Your satellite tracking list
Your tracking list is empty




NASA's NSSDC Master Catalog

Two Line Element Set (TLE):
1 66091U 25236F   26069.10849763  .00022287  00000-0  76200-3 0  9990
2 66091  53.1571 101.5721 0001876 114.0520 246.0677 15.30213639 23019
Source of the keplerian elements: AFSPC